PUA1497 SCAT-SPTN

Flight info

Callsign PUA1497
Flight time N/A
Altitude 24000
Route DOVKA Q802 SIRAM V200 ARI A568 DANKI
Aircraft F406/L-SBDFGRY/SB1

Departure

Time 2026-05-09 16:26
Airport Desierto de Atacama Airport (SCAT)

Arrival

Time N/A
Airport Coronel FAP Carlos Ciriani Santa Rosa International Airport (SPTN)
Time Latitude Longitude Altitude Speed Heading
2026-05-09 16:14 -27.26319 -70.77519 664 ft 0 kts 86°
2026-05-09 16:19 -27.26319 -70.77518 664 ft 1 kts 87°
2026-05-09 16:20 -27.26325 -70.77510 655 ft 2 kts 159°
2026-05-09 16:20 -27.26341 -70.77522 655 ft 7 kts 226°
2026-05-09 16:20 -27.26393 -70.77575 655 ft 12 kts 212°
2026-05-09 16:20 -27.26465 -70.77606 657 ft 11 kts 173°
2026-05-09 16:21 -27.26541 -70.77594 658 ft 11 kts 172°
2026-05-09 16:21 -27.26607 -70.77620 660 ft 10 kts 245°
2026-05-09 16:21 -27.26622 -70.77704 660 ft 12 kts 259°
2026-05-09 16:21 -27.26636 -70.77805 661 ft 14 kts 261°
2026-05-09 16:22 -27.26682 -70.77864 662 ft 9 kts 196°
2026-05-09 16:22 -27.26746 -70.77870 663 ft 9 kts 179°
2026-05-09 16:22 -27.26807 -70.77866 665 ft 9 kts 175°
2026-05-09 16:22 -27.26862 -70.77859 667 ft 7 kts 172°
2026-05-09 16:23 -27.26910 -70.77854 668 ft 7 kts 176°
2026-05-09 16:23 -27.26954 -70.77851 670 ft 6 kts 173°
2026-05-09 16:23 -27.26996 -70.77845 671 ft 6 kts 173°
2026-05-09 16:23 -27.27034 -70.77824 672 ft 7 kts 141°
2026-05-09 16:24 -27.27077 -70.77791 672 ft 8 kts 149°
2026-05-09 16:24 -27.27119 -70.77798 673 ft 5 kts 243°
2026-05-09 16:24 -27.27119 -70.77837 674 ft 4 kts 315°
2026-05-09 16:24 -27.27091 -70.77840 672 ft 10 kts 353°
2026-05-09 16:25 -27.26775 -70.77864 664 ft 88 kts 356°
2026-05-09 16:25 -27.25962 -70.77940 655 ft 137 kts 355°
2026-05-09 16:25 -27.24963 -70.78018 890 ft 152 kts 358°
2026-05-09 16:25 -27.23883 -70.78115 1234 ft 156 kts 353°
2026-05-09 16:26 -27.22825 -70.78260 1704 ft 154 kts 354°
2026-05-09 16:26 -27.21747 -70.78359 2085 ft 159 kts 356°
2026-05-09 16:26 -27.20626 -70.78453 2392 ft 164 kts 355°
2026-05-09 16:26 -27.19481 -70.78572 2698 ft 167 kts 355°
2026-05-09 16:27 -27.18316 -70.78690 2994 ft 168 kts 355°
2026-05-09 16:27 -27.17158 -70.78801 3377 ft 166 kts 356°
2026-05-09 16:27 -27.16010 -70.78916 3745 ft 166 kts 356°
2026-05-09 16:27 -27.14856 -70.79030 4121 ft 166 kts 356°
2026-05-09 16:28 -27.13701 -70.79142 4491 ft 167 kts 356°
2026-05-09 16:28 -27.12540 -70.79254 4853 ft 168 kts 356°
2026-05-09 16:28 -27.11401 -70.79073 5225 ft 168 kts 21°
2026-05-09 16:28 -27.10328 -70.78550 5582 ft 169 kts 25°
2026-05-09 16:29 -27.09298 -70.77907 5957 ft 170 kts 34°
2026-05-09 16:29 -27.08340 -70.77124 6324 ft 171 kts 34°
2026-05-09 16:29 -27.07349 -70.76374 6677 ft 172 kts 32°
2026-05-09 16:29 -27.06320 -70.75681 7025 ft 172 kts 20°
2026-05-09 16:30 -27.05164 -70.75337 7376 ft 173 kts 12°
2026-05-09 16:30 -27.03997 -70.75075 7738 ft 174 kts 10°
2026-05-09 16:30 -27.02772 -70.74908 8104 ft 176 kts
2026-05-09 16:30 -27.01542 -70.74851 8469 ft 178 kts
2026-05-09 16:31 -27.00317 -70.74754 8831 ft 179 kts
2026-05-09 16:31 -26.99066 -70.74641 9207 ft 181 kts
2026-05-09 16:31 -26.97806 -70.74545 9589 ft 183 kts
2026-05-09 16:31 -26.96528 -70.74448 9970 ft 185 kts
2026-05-09 16:32 -26.95240 -70.74340 10316 ft 187 kts
2026-05-09 16:32 -26.94376 -70.74273 10543 ft 189 kts
2026-05-09 16:32 -26.92607 -70.74137 11017 ft 192 kts
2026-05-09 16:32 -26.91261 -70.74030 11375 ft 196 kts
2026-05-09 16:33 -26.89890 -70.73921 11734 ft 199 kts
2026-05-09 16:33 -26.88503 -70.73811 12098 ft 201 kts
2026-05-09 16:33 -26.87094 -70.73701 12465 ft 204 kts
2026-05-09 16:33 -26.85673 -70.73588 12847 ft 206 kts
2026-05-09 16:34 -26.84233 -70.73475 13230 ft 208 kts
2026-05-09 16:34 -26.82790 -70.73360 13603 ft 208 kts
2026-05-09 16:34 -26.81346 -70.73245 13966 ft 208 kts
2026-05-09 16:34 -26.79905 -70.73133 14304 ft 208 kts
2026-05-09 16:35 -26.78481 -70.73022 14641 ft 208 kts
2026-05-09 16:35 -26.77038 -70.72907 14996 ft 208 kts
2026-05-09 16:35 -26.75589 -70.72792 15352 ft 209 kts
2026-05-09 16:35 -26.74134 -70.72679 15712 ft 209 kts
2026-05-09 16:36 -26.72675 -70.72564 16065 ft 212 kts
2026-05-09 16:36 -26.68020 -70.72197 16944 ft 234 kts
2026-05-09 16:37 -26.66373 -70.72069 17188 ft 239 kts
2026-05-09 16:37 -26.64698 -70.71933 17446 ft 243 kts
2026-05-09 16:37 -26.62991 -70.71802 17699 ft 246 kts
2026-05-09 16:37 -26.61275 -70.71667 17951 ft 248 kts
2026-05-09 16:38 -26.59574 -70.71532 18204 ft 249 kts
2026-05-09 16:38 -26.57842 -70.71396 18441 ft 250 kts
2026-05-09 16:38 -26.56107 -70.71261 18664 ft 250 kts
2026-05-09 16:38 -26.54366 -70.71123 18888 ft 251 kts
2026-05-09 16:39 -26.52631 -70.70988 19110 ft 251 kts
2026-05-09 16:39 -26.50886 -70.70851 19336 ft 251 kts
2026-05-09 16:39 -26.49143 -70.70714 19561 ft 251 kts
2026-05-09 16:39 -26.47398 -70.70576 19795 ft 251 kts
2026-05-09 16:40 -26.45658 -70.70408 20032 ft 251 kts 359°
2026-05-09 16:40 -26.43915 -70.70336 20268 ft 251 kts 359°
2026-05-09 16:42 -26.31736 -70.69224 21971 ft 251 kts
2026-05-09 16:42 -26.29999 -70.69072 22224 ft 250 kts
2026-05-09 16:42 -26.28283 -70.68921 22475 ft 250 kts
2026-05-09 16:42 -26.26548 -70.68768 22729 ft 250 kts 360°
2026-05-09 16:43 -26.24815 -70.68614 22988 ft 249 kts 360°
2026-05-09 16:43 -26.23092 -70.68464 23249 ft 247 kts 360°
2026-05-09 16:43 -26.21385 -70.68313 23514 ft 245 kts 359°
2026-05-09 16:43 -26.19690 -70.68165 23713 ft 244 kts 359°
2026-05-09 16:44 -26.17985 -70.68017 23815 ft 247 kts 359°
2026-05-09 16:44 -26.16262 -70.67864 23922 ft 248 kts 359°
2026-05-09 16:44 -26.14536 -70.67712 24022 ft 250 kts 359°
2026-05-09 16:44 -26.12778 -70.67559 24020 ft 255 kts 359°
2026-05-09 16:45 -26.10996 -70.67401 24017 ft 259 kts 360°
2026-05-09 16:45 -26.09189 -70.67242 24016 ft 261 kts 360°
2026-05-09 16:45 -26.07366 -70.67084 24016 ft 266 kts 360°
2026-05-09 16:45 -26.05525 -70.66922 24015 ft 270 kts 360°
2026-05-09 16:46 -26.03638 -70.66756 24015 ft 274 kts 360°
2026-05-09 16:46 -26.01731 -70.66590 24016 ft 276 kts 360°
2026-05-09 16:46 -25.99810 -70.66421 24015 ft 278 kts 360°
2026-05-09 16:46 -25.97881 -70.66252 24016 ft 279 kts
2026-05-09 16:47 -25.95938 -70.66082 24012 ft 280 kts
2026-05-09 16:47 -25.93997 -70.65912 24012 ft 281 kts
2026-05-09 16:47 -25.92050 -70.65742 24015 ft 281 kts
2026-05-09 16:47 -25.90091 -70.65571 24014 ft 282 kts 360°
2026-05-09 16:48 -25.88790 -70.65458 24015 ft 283 kts
2026-05-09 16:48 -25.86828 -70.65285 24005 ft 283 kts
2026-05-09 16:48 -25.84868 -70.65115 24002 ft 282 kts
2026-05-09 16:48 -25.82908 -70.64942 24013 ft 282 kts
2026-05-09 16:49 -25.80949 -70.64772 24017 ft 282 kts 360°
2026-05-09 16:49 -25.78990 -70.64602 24016 ft 283 kts
2026-05-09 16:49 -25.77027 -70.64429 24013 ft 283 kts
2026-05-09 16:50 -25.73099 -70.64088 24006 ft 283 kts
2026-05-09 16:50 -25.71137 -70.63917 24007 ft 283 kts
2026-05-09 16:50 -25.69176 -70.63746 24002 ft 282 kts
2026-05-09 16:50 -25.67215 -70.63574 24008 ft 282 kts
2026-05-09 16:51 -25.65264 -70.63406 24008 ft 281 kts
2026-05-09 16:51 -25.63317 -70.63236 24017 ft 281 kts
2026-05-09 16:51 -25.61384 -70.63068 24013 ft 282 kts
2026-05-09 16:51 -25.59432 -70.62898 24011 ft 282 kts
2026-05-09 16:52 -25.57477 -70.62728 24010 ft 282 kts
2026-05-09 16:52 -25.55516 -70.62557 24012 ft 282 kts
2026-05-09 16:52 -25.53557 -70.62388 24012 ft 282 kts
2026-05-09 16:52 -25.51600 -70.62217 24009 ft 282 kts 360°
2026-05-09 16:53 -25.49642 -70.62048 24004 ft 282 kts
2026-05-09 16:53 -25.47689 -70.61877 24004 ft 281 kts 360°
2026-05-09 16:53 -25.45735 -70.61708 24007 ft 281 kts
2026-05-09 16:53 -25.43788 -70.61539 24008 ft 280 kts 360°
2026-05-09 16:54 -25.41846 -70.61371 24009 ft 280 kts
2026-05-09 16:54 -25.39906 -70.61204 24009 ft 280 kts 360°
2026-05-09 16:54 -25.37966 -70.61037 24011 ft 280 kts
2026-05-09 16:54 -25.36027 -70.60868 24009 ft 279 kts 360°
2026-05-09 16:55 -25.34088 -70.60702 24009 ft 279 kts
2026-05-09 16:55 -25.32151 -70.60534 24011 ft 279 kts
2026-05-09 16:55 -25.30239 -70.60369 24010 ft 279 kts 360°
2026-05-09 16:55 -25.28278 -70.60200 24008 ft 279 kts
2026-05-09 16:56 -25.26368 -70.60035 24011 ft 279 kts
2026-05-09 16:56 -25.24436 -70.59868 24010 ft 279 kts
2026-05-09 16:56 -25.22499 -70.59701 24009 ft 279 kts
2026-05-09 16:56 -25.20570 -70.59535 24008 ft 279 kts
2026-05-09 16:57 -25.18631 -70.59368 24006 ft 278 kts
2026-05-09 16:57 -25.16703 -70.59202 24007 ft 278 kts
2026-05-09 16:57 -25.14768 -70.59036 24006 ft 278 kts
2026-05-09 16:57 -25.12842 -70.58870 24006 ft 278 kts
2026-05-09 16:58 -25.10907 -70.58703 24007 ft 278 kts
2026-05-09 16:58 -25.08976 -70.58537 24004 ft 278 kts
2026-05-09 16:58 -25.07047 -70.58371 24008 ft 278 kts
2026-05-09 16:58 -25.05115 -70.58205 23999 ft 278 kts
2026-05-09 16:59 -25.03189 -70.58040 24001 ft 278 kts
2026-05-09 16:59 -25.01262 -70.57874 23999 ft 278 kts
2026-05-09 16:59 -24.99334 -70.57708 24002 ft 278 kts
2026-05-09 16:59 -24.97431 -70.57545 24003 ft 278 kts
2026-05-09 17:00 -24.95505 -70.57380 24002 ft 277 kts
2026-05-09 17:00 -24.93584 -70.57215 23999 ft 277 kts
2026-05-09 17:00 -24.91656 -70.57049 23997 ft 277 kts
2026-05-09 17:00 -24.89731 -70.56885 24000 ft 277 kts
2026-05-09 17:01 -24.87812 -70.56720 23996 ft 277 kts
2026-05-09 17:01 -24.85887 -70.56556 24000 ft 277 kts
2026-05-09 17:01 -24.83968 -70.56391 23995 ft 277 kts
2026-05-09 17:01 -24.82071 -70.56224 23998 ft 277 kts
2026-05-09 17:02 -24.80132 -70.56051 23996 ft 276 kts 359°
2026-05-09 17:02 -24.78220 -70.56056 23995 ft 274 kts 353°
2026-05-09 17:02 -24.76336 -70.56096 23994 ft 275 kts 356°
2026-05-09 17:02 -24.74422 -70.56081 23995 ft 274 kts 355°
2026-05-09 17:03 -24.72509 -70.56108 23994 ft 275 kts 355°
2026-05-09 17:04 -24.59048 -70.56185 23992 ft 275 kts 355°
2026-05-09 17:05 -24.57130 -70.56197 23991 ft 275 kts 355°
2026-05-09 17:05 -24.55243 -70.56209 24001 ft 275 kts 355°
2026-05-09 17:05 -24.53324 -70.56221 23997 ft 276 kts 355°
2026-05-09 17:05 -24.51398 -70.56232 23994 ft 277 kts 355°
2026-05-09 17:06 -24.49472 -70.56245 23987 ft 277 kts 355°
2026-05-09 17:06 -24.47551 -70.56256 23987 ft 276 kts 355°
2026-05-09 17:06 -24.45625 -70.56267 23990 ft 275 kts 355°
2026-05-09 17:06 -24.43710 -70.56280 23989 ft 275 kts 355°
2026-05-09 17:07 -24.41793 -70.56291 23990 ft 275 kts 355°
2026-05-09 17:07 -24.40524 -70.56299 23992 ft 274 kts 355°
2026-05-09 17:07 -24.37975 -70.56315 23993 ft 274 kts 356°
2026-05-09 17:07 -24.36072 -70.56327 23992 ft 274 kts 356°
2026-05-09 17:08 -24.34166 -70.56338 23991 ft 274 kts 356°
2026-05-09 17:08 -24.30359 -70.56363 23994 ft 274 kts 356°
2026-05-09 17:08 -24.28453 -70.56373 23991 ft 273 kts 356°
2026-05-09 17:09 -24.26555 -70.56386 23995 ft 273 kts 356°
2026-05-09 17:09 -24.24650 -70.56397 23994 ft 273 kts 356°
2026-05-09 17:09 -24.22748 -70.56409 23995 ft 273 kts 356°
2026-05-09 17:09 -24.20848 -70.56420 23997 ft 273 kts 356°
2026-05-09 17:10 -24.18949 -70.56432 23996 ft 273 kts 356°
2026-05-09 17:10 -24.17049 -70.56444 23992 ft 273 kts 356°
2026-05-09 17:10 -24.15170 -70.56456 23996 ft 273 kts 356°
2026-05-09 17:10 -24.13267 -70.56466 23997 ft 273 kts 356°
2026-05-09 17:11 -24.11365 -70.56479 23992 ft 273 kts 356°
2026-05-09 17:11 -24.09464 -70.56490 23994 ft 273 kts 356°
2026-05-09 17:11 -24.07565 -70.56501 23992 ft 273 kts 356°
2026-05-09 17:11 -24.05670 -70.56514 23991 ft 273 kts 356°
2026-05-09 17:12 -24.03772 -70.56525 23991 ft 273 kts 356°
2026-05-09 17:12 -24.01871 -70.56537 23991 ft 273 kts 356°
2026-05-09 17:12 -23.99974 -70.56548 23993 ft 273 kts 356°
2026-05-09 17:12 -23.98072 -70.56560 23994 ft 273 kts 356°
2026-05-09 17:13 -23.96170 -70.56572 23996 ft 273 kts 356°
2026-05-09 17:13 -23.94274 -70.56583 23996 ft 273 kts 356°
2026-05-09 17:13 -23.92375 -70.56595 23996 ft 273 kts 356°
2026-05-09 17:13 -23.90478 -70.56605 23996 ft 273 kts 356°
2026-05-09 17:14 -23.88581 -70.56617 23997 ft 273 kts 356°
2026-05-09 17:14 -23.86689 -70.56629 23996 ft 273 kts 356°
2026-05-09 17:14 -23.84790 -70.56641 23995 ft 272 kts 356°
2026-05-09 17:14 -23.82896 -70.56654 23995 ft 272 kts 356°
2026-05-09 17:15 -23.81002 -70.56703 23994 ft 272 kts 357°
2026-05-09 17:15 -23.79106 -70.56664 23991 ft 273 kts 358°
2026-05-09 17:15 -23.77210 -70.56663 23993 ft 272 kts 357°
2026-05-09 17:15 -23.75317 -70.56658 23994 ft 272 kts 357°
2026-05-09 17:16 -23.73420 -70.56644 23993 ft 272 kts 357°
2026-05-09 17:17 -23.60174 -70.56588 23990 ft 272 kts 358°
2026-05-09 17:18 -23.58279 -70.56581 23995 ft 272 kts 358°
2026-05-09 17:18 -23.56389 -70.56572 23991 ft 272 kts 358°
2026-05-09 17:18 -23.54493 -70.56564 23991 ft 272 kts 358°
2026-05-09 17:18 -23.52599 -70.56556 23999 ft 272 kts 358°
2026-05-09 17:19 -23.50705 -70.56547 23999 ft 273 kts 358°
2026-05-09 17:19 -23.48810 -70.56539 23986 ft 273 kts 358°
2026-05-09 17:19 -23.46917 -70.56530 23996 ft 272 kts 358°
2026-05-09 17:19 -23.45018 -70.56525 23986 ft 272 kts 358°
2026-05-09 17:20 -23.43122 -70.56513 23990 ft 272 kts 358°
2026-05-09 17:20 -23.41232 -70.56508 23993 ft 272 kts 358°
2026-05-09 17:20 -23.39335 -70.56500 23989 ft 272 kts 358°
2026-05-09 17:20 -23.37441 -70.56490 23991 ft 272 kts 358°
2026-05-09 17:21 -23.35543 -70.56483 23990 ft 272 kts 358°
2026-05-09 17:21 -23.33674 -70.56475 23997 ft 272 kts 358°
2026-05-09 17:21 -23.31785 -70.56466 23990 ft 272 kts 358°
2026-05-09 17:21 -23.29889 -70.56458 23988 ft 271 kts 358°
2026-05-09 17:22 -23.28000 -70.56450 23989 ft 271 kts 358°
2026-05-09 17:22 -23.26121 -70.56442 23983 ft 271 kts 358°
2026-05-09 17:22 -23.24236 -70.56433 23986 ft 271 kts 358°
2026-05-09 17:22 -23.22350 -70.56426 23981 ft 271 kts 358°
2026-05-09 17:23 -23.20472 -70.56417 23985 ft 270 kts 358°
2026-05-09 17:23 -23.18586 -70.56408 23991 ft 270 kts 358°
2026-05-09 17:23 -23.16704 -70.56402 23991 ft 271 kts 358°
2026-05-09 17:23 -23.14816 -70.56392 23993 ft 271 kts 358°
2026-05-09 17:25 -23.05374 -70.56353 23982 ft 271 kts 358°
2026-05-09 17:25 -23.03491 -70.56345 23977 ft 270 kts 358°
2026-05-09 17:25 -23.01618 -70.56336 23979 ft 270 kts 358°
2026-05-09 17:25 -22.99737 -70.56329 23981 ft 269 kts 358°
2026-05-09 17:26 -22.97866 -70.56321 23982 ft 269 kts 358°
2026-05-09 17:26 -22.95996 -70.56312 23980 ft 269 kts 358°
2026-05-09 17:26 -22.94126 -70.56304 23983 ft 268 kts 358°
2026-05-09 17:26 -22.92254 -70.56297 23989 ft 268 kts 358°
2026-05-09 17:27 -22.90416 -70.56332 23987 ft 268 kts 357°
2026-05-09 17:27 -22.88551 -70.56284 23983 ft 268 kts
2026-05-09 17:27 -22.86681 -70.56239 23983 ft 268 kts 358°
2026-05-09 17:27 -22.84817 -70.56216 23983 ft 268 kts 359°
2026-05-09 17:28 -22.82956 -70.56170 23984 ft 268 kts 359°
2026-05-09 17:28 -22.81097 -70.56137 23980 ft 267 kts 359°
2026-05-09 17:28 -22.79239 -70.56102 23982 ft 267 kts 359°
2026-05-09 17:28 -22.77377 -70.56065 23977 ft 267 kts 359°
2026-05-09 17:29 -22.75515 -70.56030 23973 ft 267 kts 359°
2026-05-09 17:29 -22.73658 -70.55993 23973 ft 267 kts 359°
2026-05-09 17:29 -22.71801 -70.55959 23974 ft 267 kts 359°
2026-05-09 17:29 -22.69945 -70.55923 23974 ft 267 kts 359°
2026-05-09 17:30 -22.68094 -70.55887 23978 ft 266 kts 359°
2026-05-09 17:30 -22.66239 -70.55852 23982 ft 266 kts 359°
2026-05-09 17:30 -22.64384 -70.55817 23979 ft 266 kts 359°
2026-05-09 17:30 -22.62556 -70.55781 23984 ft 266 kts 359°
2026-05-09 17:31 -22.60703 -70.55746 23974 ft 266 kts 359°
2026-05-09 17:31 -22.58827 -70.55710 23973 ft 266 kts 359°
2026-05-09 17:32 -22.51463 -70.55570 23973 ft 265 kts 359°
2026-05-09 17:32 -22.49615 -70.55535 23972 ft 265 kts 359°
2026-05-09 17:32 -22.47767 -70.55500 23976 ft 265 kts 359°
2026-05-09 17:33 -22.45927 -70.55464 23977 ft 265 kts 359°
2026-05-09 17:33 -22.44087 -70.55431 23978 ft 265 kts 359°
2026-05-09 17:33 -22.42247 -70.55395 23973 ft 265 kts 359°
2026-05-09 17:33 -22.40396 -70.55359 23976 ft 264 kts 359°
2026-05-09 17:34 -22.38559 -70.55325 23969 ft 264 kts 359°
2026-05-09 17:35 -22.28153 -70.55127 23974 ft 264 kts 360°
2026-05-09 17:35 -22.26318 -70.55091 23974 ft 263 kts 360°
2026-05-09 17:36 -22.24484 -70.55057 23975 ft 263 kts 360°
2026-05-09 17:36 -22.22656 -70.55023 23968 ft 263 kts 360°
2026-05-09 17:36 -22.20824 -70.54987 23966 ft 263 kts 360°
2026-05-09 17:36 -22.18997 -70.54953 23968 ft 263 kts 360°
2026-05-09 17:37 -22.17191 -70.54919 23966 ft 263 kts 360°
2026-05-09 17:37 -22.15363 -70.54884 23966 ft 263 kts 360°
2026-05-09 17:37 -22.13537 -70.54850 23968 ft 262 kts 360°
2026-05-09 17:37 -22.11687 -70.54814 23968 ft 262 kts 360°
2026-05-09 17:38 -22.09887 -70.54780 23964 ft 262 kts 360°
2026-05-09 17:38 -22.08064 -70.54746 23967 ft 262 kts 360°
2026-05-09 17:38 -22.06240 -70.54710 23966 ft 262 kts 360°
2026-05-09 17:39 -22.02598 -70.54643 23972 ft 262 kts 360°
2026-05-09 17:39 -22.00775 -70.54607 23966 ft 262 kts 360°
2026-05-09 17:39 -21.98958 -70.54573 23968 ft 261 kts 360°
2026-05-09 17:39 -21.97138 -70.54540 23964 ft 261 kts 360°
2026-05-09 17:40 -21.95318 -70.54504 23966 ft 261 kts 360°
2026-05-09 17:40 -21.93498 -70.54470 23971 ft 261 kts 360°
2026-05-09 17:40 -21.91684 -70.54424 23970 ft 261 kts
2026-05-09 17:40 -21.89869 -70.54368 23968 ft 261 kts 358°
2026-05-09 17:41 -21.88054 -70.54393 23964 ft 261 kts 359°
2026-05-09 17:41 -21.86236 -70.54367 23964 ft 261 kts 359°
2026-05-09 17:41 -21.84423 -70.54358 23965 ft 261 kts 359°
2026-05-09 17:41 -21.82607 -70.54353 23967 ft 261 kts 359°
2026-05-09 17:42 -21.80797 -70.54339 23964 ft 260 kts 359°
2026-05-09 17:42 -21.78986 -70.54330 23962 ft 260 kts 359°
2026-05-09 17:42 -21.77173 -70.54321 23963 ft 261 kts 359°
2026-05-09 17:42 -21.75359 -70.54309 23964 ft 261 kts 359°
2026-05-09 17:43 -21.73613 -70.54301 23964 ft 261 kts 359°
2026-05-09 17:43 -21.71800 -70.54290 23966 ft 261 kts 359°
2026-05-09 17:43 -21.69985 -70.54279 23963 ft 261 kts 359°
2026-05-09 17:43 -21.68175 -70.54270 23963 ft 261 kts 359°
2026-05-09 17:44 -21.66356 -70.54258 23968 ft 260 kts 359°
2026-05-09 17:44 -21.64537 -70.54249 23963 ft 260 kts 359°
2026-05-09 17:44 -21.62730 -70.54238 23967 ft 260 kts 359°
2026-05-09 17:44 -21.60916 -70.54227 23966 ft 260 kts 359°
2026-05-09 17:45 -21.59107 -70.54218 23966 ft 260 kts 359°
2026-05-09 17:45 -21.57299 -70.54208 23966 ft 260 kts 359°
2026-05-09 17:45 -21.55490 -70.54196 23965 ft 260 kts 359°
2026-05-09 17:45 -21.53680 -70.54187 23963 ft 260 kts 359°
2026-05-09 17:46 -21.51874 -70.54177 23966 ft 260 kts 359°
2026-05-09 17:46 -21.50066 -70.54165 23963 ft 260 kts 359°
2026-05-09 17:46 -21.48252 -70.54156 23964 ft 260 kts 359°
2026-05-09 17:46 -21.46442 -70.54146 23962 ft 260 kts 359°
2026-05-09 17:47 -21.44633 -70.54135 23963 ft 260 kts 359°
2026-05-09 17:47 -21.42825 -70.54125 23967 ft 260 kts 359°
2026-05-09 17:47 -21.41017 -70.54116 23964 ft 260 kts 359°
2026-05-09 17:47 -21.39206 -70.54104 23963 ft 260 kts 359°
2026-05-09 17:48 -21.37392 -70.54095 23969 ft 260 kts 359°
2026-05-09 17:48 -21.35582 -70.54083 23969 ft 260 kts 359°
2026-05-09 17:48 -21.33771 -70.54074 23963 ft 260 kts 359°
2026-05-09 17:48 -21.31959 -70.54064 23965 ft 260 kts 359°
2026-05-09 17:49 -21.30165 -70.54052 23961 ft 260 kts 359°
2026-05-09 17:49 -21.28352 -70.54043 23966 ft 260 kts 359°
2026-05-09 17:49 -21.26542 -70.54033 23967 ft 260 kts 359°
2026-05-09 17:49 -21.24732 -70.54022 23962 ft 260 kts 359°
2026-05-09 17:50 -21.22921 -70.54011 23963 ft 260 kts 359°
2026-05-09 17:50 -21.19297 -70.53991 23963 ft 260 kts 359°
2026-05-09 17:50 -21.17485 -70.53981 23963 ft 260 kts 359°
2026-05-09 17:51 -21.15670 -70.53970 23966 ft 260 kts 359°
2026-05-09 17:51 -21.13860 -70.53960 23964 ft 260 kts 359°
2026-05-09 17:51 -21.12042 -70.53950 23963 ft 260 kts 359°
2026-05-09 17:51 -21.10232 -70.53941 23962 ft 260 kts 359°
2026-05-09 17:52 -21.08420 -70.53929 23964 ft 260 kts 359°
2026-05-09 17:52 -21.06604 -70.53919 23961 ft 261 kts 359°
2026-05-09 17:52 -21.04788 -70.53910 23963 ft 261 kts 359°
2026-05-09 17:52 -21.02975 -70.53898 23963 ft 261 kts 359°
2026-05-09 17:53 -21.01162 -70.53888 23966 ft 261 kts 359°
2026-05-09 17:53 -20.99364 -70.53877 23964 ft 261 kts 359°
2026-05-09 17:53 -20.97549 -70.53868 23964 ft 261 kts 359°
2026-05-09 17:53 -20.95733 -70.53858 23963 ft 261 kts 359°
2026-05-09 17:54 -20.93920 -70.53846 23964 ft 261 kts 359°
2026-05-09 17:54 -20.92106 -70.53836 23961 ft 261 kts 359°
2026-05-09 17:54 -20.90293 -70.53827 23962 ft 261 kts 359°
2026-05-09 17:54 -20.88481 -70.53815 23963 ft 260 kts 359°
2026-05-09 17:55 -20.86668 -70.53805 23959 ft 260 kts 359°
2026-05-09 17:55 -20.84857 -70.53795 23959 ft 260 kts 359°
2026-05-09 17:55 -20.83044 -70.53785 23962 ft 260 kts 359°
2026-05-09 17:55 -20.81236 -70.53775 23960 ft 260 kts 359°
2026-05-09 17:56 -20.79423 -70.53763 23963 ft 260 kts 359°
2026-05-09 17:56 -20.77616 -70.53754 23962 ft 260 kts 359°
2026-05-09 17:56 -20.75808 -70.53744 23966 ft 260 kts 359°
2026-05-09 17:57 -20.72195 -70.53723 23961 ft 260 kts 359°
2026-05-09 17:57 -20.70390 -70.53715 23963 ft 260 kts 359°
2026-05-09 17:57 -20.68582 -70.53702 23963 ft 260 kts 359°
2026-05-09 17:57 -20.66778 -70.53693 23962 ft 260 kts 359°
2026-05-09 17:58 -20.64969 -70.53683 23958 ft 260 kts 359°
2026-05-09 17:58 -20.63164 -70.53673 23961 ft 260 kts 359°
2026-05-09 17:58 -20.61355 -70.53662 23960 ft 260 kts 359°
2026-05-09 17:58 -20.59546 -70.53652 23961 ft 260 kts 359°
2026-05-09 17:59 -20.57741 -70.53642 23960 ft 260 kts 359°
2026-05-09 17:59 -20.55936 -70.53630 23959 ft 260 kts 359°
2026-05-09 17:59 -20.54131 -70.53621 23961 ft 260 kts 359°
2026-05-09 17:59 -20.52327 -70.53610 23960 ft 259 kts 359°
2026-05-09 18:00 -20.50519 -70.53600 23963 ft 259 kts 359°
2026-05-09 18:00 -20.48716 -70.53589 23964 ft 259 kts 359°
2026-05-09 18:00 -20.46912 -70.53580 23964 ft 259 kts 359°
2026-05-09 18:00 -20.45107 -70.53568 23962 ft 259 kts 359°
2026-05-09 18:01 -20.43300 -70.53559 23962 ft 259 kts 359°
2026-05-09 18:01 -20.41501 -70.53549 23961 ft 259 kts 359°
2026-05-09 18:01 -20.39695 -70.53538 23961 ft 259 kts 359°
2026-05-09 18:01 -20.37889 -70.53528 23961 ft 259 kts 359°
2026-05-09 18:02 -20.36087 -70.53518 23962 ft 259 kts 359°
2026-05-09 18:02 -20.34278 -70.53506 23958 ft 259 kts 359°
2026-05-09 18:02 -20.32475 -70.53497 23957 ft 259 kts 359°
2026-05-09 18:02 -20.30667 -70.53486 23961 ft 259 kts 359°
2026-05-09 18:03 -20.28886 -70.53476 23959 ft 260 kts 359°
2026-05-09 18:03 -20.27057 -70.53466 23959 ft 259 kts 359°
2026-05-09 18:03 -20.25250 -70.53455 23962 ft 259 kts 359°
2026-05-09 18:03 -20.23469 -70.53445 23962 ft 259 kts 359°
2026-05-09 18:04 -20.21640 -70.53435 23964 ft 259 kts 359°
2026-05-09 18:04 -20.19834 -70.53425 23965 ft 259 kts 359°
2026-05-09 18:04 -20.18055 -70.53414 23959 ft 259 kts 360°
2026-05-09 18:04 -20.16249 -70.53403 23962 ft 259 kts 360°
2026-05-09 18:05 -20.14444 -70.53394 23961 ft 259 kts 360°
2026-05-09 18:05 -20.12636 -70.53383 23962 ft 259 kts 360°
2026-05-09 18:05 -20.10832 -70.53373 23959 ft 259 kts 360°
2026-05-09 18:05 -20.09028 -70.53363 23961 ft 259 kts 360°
2026-05-09 18:06 -20.07225 -70.53352 23961 ft 259 kts 360°
2026-05-09 18:06 -20.05416 -70.53342 23959 ft 259 kts 360°
2026-05-09 18:06 -20.03612 -70.53332 23961 ft 259 kts
2026-05-09 18:06 -20.01812 -70.53322 23958 ft 259 kts 360°
2026-05-09 18:07 -20.00007 -70.53339 23959 ft 259 kts 359°
2026-05-09 18:07 -19.98209 -70.53386 23960 ft 259 kts 356°
2026-05-09 18:07 -19.96425 -70.53629 23960 ft 259 kts 351°
2026-05-09 18:07 -19.94639 -70.53862 23962 ft 259 kts 354°
2026-05-09 18:08 -19.92846 -70.54067 23958 ft 259 kts 353°
2026-05-09 18:08 -19.91059 -70.54301 23958 ft 259 kts 353°
2026-05-09 18:08 -19.89273 -70.54517 23958 ft 259 kts 353°
2026-05-09 18:08 -19.87484 -70.54740 23957 ft 259 kts 353°
2026-05-09 18:09 -19.85693 -70.54963 23960 ft 259 kts 353°
2026-05-09 18:09 -19.83907 -70.55183 23958 ft 259 kts 353°
2026-05-09 18:09 -19.82114 -70.55406 23957 ft 259 kts 353°
2026-05-09 18:09 -19.80330 -70.55627 23958 ft 259 kts 353°
2026-05-09 18:10 -19.78536 -70.55850 23955 ft 259 kts 353°
2026-05-09 18:10 -19.77962 -70.55921 23954 ft 259 kts 353°
2026-05-09 18:10 -19.74982 -70.56290 23954 ft 259 kts 353°
2026-05-09 18:10 -19.73191 -70.56511 23954 ft 259 kts 353°
2026-05-09 18:11 -19.71402 -70.56733 23955 ft 259 kts 353°
2026-05-09 18:11 -19.69615 -70.56955 23954 ft 259 kts 353°
2026-05-09 18:11 -19.67821 -70.57177 23955 ft 259 kts 353°
2026-05-09 18:11 -19.66035 -70.57398 23954 ft 259 kts 353°
2026-05-09 18:12 -19.64241 -70.57620 23954 ft 259 kts 353°
2026-05-09 18:12 -19.62452 -70.57841 23953 ft 259 kts 353°
2026-05-09 18:12 -19.60661 -70.58063 23956 ft 259 kts 353°
2026-05-09 18:12 -19.58869 -70.58285 23954 ft 259 kts 353°
2026-05-09 18:13 -19.57079 -70.58505 23954 ft 259 kts 353°
2026-05-09 18:13 -19.55293 -70.58727 23955 ft 259 kts 353°
2026-05-09 18:13 -19.53503 -70.58948 23955 ft 259 kts 353°
2026-05-09 18:13 -19.51712 -70.59170 23955 ft 259 kts 353°
2026-05-09 18:14 -19.49918 -70.59392 23955 ft 259 kts 353°
2026-05-09 18:14 -19.48130 -70.59612 23955 ft 259 kts 353°
2026-05-09 18:14 -19.46338 -70.59816 23955 ft 259 kts 356°
2026-05-09 18:14 -19.44537 -70.59840 23956 ft 259 kts
2026-05-09 18:15 -19.42741 -70.59691 23956 ft 259 kts
2026-05-09 18:15 -19.40952 -70.59465 23954 ft 259 kts
2026-05-09 18:15 -19.39200 -70.59024 23954 ft 259 kts 15°
2026-05-09 18:15 -19.37443 -70.58584 23956 ft 259 kts 11°
2026-05-09 18:16 -19.35683 -70.58184 23950 ft 259 kts 13°
2026-05-09 18:16 -19.33928 -70.57750 23952 ft 259 kts 13°
2026-05-09 18:16 -19.32171 -70.57334 23952 ft 259 kts 12°
2026-05-09 18:16 -19.30416 -70.56914 23955 ft 259 kts 13°
2026-05-09 18:17 -19.28664 -70.56492 23953 ft 259 kts 12°
2026-05-09 18:17 -19.26906 -70.56072 23953 ft 259 kts 12°
2026-05-09 18:17 -19.25150 -70.55652 23953 ft 259 kts 12°
2026-05-09 18:17 -19.23418 -70.55238 23955 ft 259 kts 12°
2026-05-09 18:18 -19.21664 -70.54817 23954 ft 259 kts 12°
2026-05-09 18:18 -19.19905 -70.54395 23952 ft 259 kts 12°
2026-05-09 18:18 -19.18150 -70.53976 23951 ft 259 kts 12°
2026-05-09 18:18 -19.16395 -70.53555 23951 ft 259 kts 12°
2026-05-09 18:19 -19.14638 -70.53135 23954 ft 259 kts 12°
2026-05-09 18:19 -19.11117 -70.52294 23955 ft 259 kts 12°
2026-05-09 18:19 -19.09357 -70.51873 23954 ft 259 kts 12°
2026-05-09 18:20 -19.07593 -70.51451 23951 ft 259 kts 12°
2026-05-09 18:20 -19.05834 -70.51031 23949 ft 259 kts 12°
2026-05-09 18:20 -19.04072 -70.50610 23956 ft 260 kts 12°
2026-05-09 18:20 -19.02901 -70.50330 23950 ft 260 kts 12°
2026-05-09 18:21 -19.01137 -70.49908 23952 ft 260 kts 12°
2026-05-09 18:21 -18.98780 -70.49347 23952 ft 260 kts 12°
2026-05-09 18:21 -18.97612 -70.49068 23951 ft 260 kts 12°
2026-05-09 18:21 -18.95850 -70.48646 23953 ft 260 kts 12°
2026-05-09 18:22 -18.94085 -70.48226 23948 ft 260 kts 11°
2026-05-09 18:22 -18.92320 -70.47804 23949 ft 260 kts 11°
2026-05-09 18:22 -18.90557 -70.47385 23950 ft 260 kts 11°
2026-05-09 18:22 -18.88791 -70.46962 23949 ft 260 kts 11°
2026-05-09 18:23 -18.87027 -70.46542 23950 ft 260 kts 11°
2026-05-09 18:23 -18.85261 -70.46121 23952 ft 260 kts 11°
2026-05-09 18:23 -18.83495 -70.45701 23950 ft 260 kts 11°
2026-05-09 18:23 -18.81730 -70.45279 23950 ft 260 kts 11°
2026-05-09 18:24 -18.79966 -70.44860 23950 ft 260 kts 11°
2026-05-09 18:24 -18.78198 -70.44438 23949 ft 260 kts 11°
2026-05-09 18:24 -18.76430 -70.44017 23946 ft 260 kts 11°
2026-05-09 18:25 -18.72894 -70.43175 23948 ft 261 kts 11°
2026-05-09 18:25 -18.71123 -70.42755 23937 ft 261 kts 11°
2026-05-09 18:25 -18.69319 -70.42329 23681 ft 270 kts 11°
2026-05-09 18:25 -18.67484 -70.41889 23250 ft 273 kts 11°
2026-05-09 18:26 -18.65628 -70.41447 22839 ft 275 kts 11°
2026-05-09 18:26 -18.63750 -70.41003 22430 ft 278 kts 11°
2026-05-09 18:26 -18.61854 -70.40550 22023 ft 280 kts 11°
2026-05-09 18:26 -18.59977 -70.40104 21627 ft 281 kts 11°
2026-05-09 18:27 -18.58068 -70.39651 21237 ft 281 kts 11°
2026-05-09 18:27 -18.56154 -70.39196 20844 ft 281 kts 10°
2026-05-09 18:27 -18.54249 -70.38743 20460 ft 280 kts 10°
2026-05-09 18:27 -18.52351 -70.38292 20078 ft 280 kts 10°
2026-05-09 18:28 -18.50457 -70.37843 19705 ft 279 kts 10°
2026-05-09 18:28 -18.48564 -70.37394 19332 ft 278 kts 10°
2026-05-09 18:28 -18.46680 -70.36947 18965 ft 277 kts 10°
2026-05-09 18:28 -18.44804 -70.36502 18604 ft 276 kts 10°
2026-05-09 18:29 -18.42928 -70.36096 18247 ft 274 kts
2026-05-09 18:29 -18.41036 -70.35915 17838 ft 272 kts
2026-05-09 18:29 -18.39192 -70.35698 17355 ft 244 kts
2026-05-09 18:29 -18.37729 -70.35467 16844 ft 186 kts
2026-05-09 18:30 -18.36550 -70.35328 16346 ft 158 kts
2026-05-09 18:30 -18.35507 -70.35194 15822 ft 146 kts
2026-05-09 18:30 -18.34482 -70.35063 14965 ft 152 kts
2026-05-09 18:30 -18.33418 -70.34958 13955 ft 153 kts
2026-05-09 18:31 -18.32372 -70.34863 12748 ft 153 kts
2026-05-09 18:31 -18.31260 -70.34773 11221 ft 165 kts
2026-05-09 18:31 -18.30129 -70.34676 9940 ft 162 kts
2026-05-09 18:31 -18.28971 -70.34630 8455 ft 164 kts
2026-05-09 18:32 -18.27890 -70.34525 7301 ft 153 kts
2026-05-09 18:32 -18.26848 -70.34352 6112 ft 151 kts 11°
2026-05-09 18:32 -18.25823 -70.34226 4967 ft 145 kts
2026-05-09 18:32 -18.24862 -70.34178 4099 ft 130 kts 11°
2026-05-09 18:33 -18.23945 -70.33997 3533 ft 145 kts 10°
2026-05-09 18:33 -18.22981 -70.33769 3146 ft 139 kts 13°
2026-05-09 18:33 -18.22065 -70.33575 2918 ft 127 kts
2026-05-09 18:33 -18.21159 -70.33407 3008 ft 142 kts 11°
2026-05-09 18:34 -18.20167 -70.33101 3015 ft 143 kts 19°
2026-05-09 18:34 -18.19295 -70.32748 2999 ft 128 kts 21°
2026-05-09 18:34 -18.18471 -70.32396 2995 ft 131 kts 21°
2026-05-09 18:34 -18.17608 -70.32021 3003 ft 136 kts 22°
2026-05-09 18:35 -18.16728 -70.31638 3004 ft 137 kts 22°
2026-05-09 18:35 -18.15825 -70.31251 3005 ft 142 kts 21°
2026-05-09 18:35 -18.14948 -70.30924 2676 ft 132 kts 16°
2026-05-09 18:35 -18.14029 -70.30634 2365 ft 145 kts 15°
2026-05-09 18:36 -18.13047 -70.30344 2184 ft 149 kts 17°